Time,TemperatureF,DewpointF,PressureIn,WindDirection,WindDirectionDegrees,WindSpeedMPH,WindSpeedGustMPH,Humidity,HourlyPrecipIn,Conditions,Clouds,dailyrainin,SoftwareType,DateUTC
2013-05-21 00:28:00,60.2,39.9,29.81,East,84,5.0,9.0,47,0.00,,,0.00,VWS V14.01,2013-05-21 07:28:00,
2013-05-21 00:58:00,59.2,40.1,29.80,East,86,5.0,8.0,49,0.00,,,0.00,VWS V14.01,2013-05-21 07:58:00,
2013-05-21 01:28:00,57.6,40.1,29.79,ENE,72,3.0,8.0,52,0.00,,,0.00,VWS V14.01,2013-05-21 08:28:00,
2013-05-21 01:58:00,57.7,40.2,29.78,East,81,2.0,7.0,52,0.00,,,0.00,VWS V14.01,2013-05-21 08:58:00,
2013-05-21 02:28:00,57.4,39.9,29.77,East,93,5.0,9.0,52,0.00,,,0.00,VWS V14.01,2013-05-21 09:28:00,
2013-05-21 02:58:00,56.4,40.5,29.77,East,79,0.0,9.0,55,0.00,,,0.00,VWS V14.01,2013-05-21 09:58:00,
2013-05-21 03:28:00,56.9,40.4,29.77,East,87,0.0,8.0,54,0.00,,,0.00,VWS V14.01,2013-05-21 10:28:00,
2013-05-21 03:58:00,56.4,40.9,29.77,East,91,8.0,10.0,56,0.00,,,0.00,VWS V14.01,2013-05-21 10:58:00,
2013-05-21 04:28:00,58.7,41.1,29.76,East,89,5.0,9.0,52,0.00,,,0.00,VWS V14.01,2013-05-21 11:28:00,
2013-05-21 04:58:00,58.6,41.0,29.76,East,94,0.0,8.0,52,0.00,,,0.00,VWS V14.01,2013-05-21 11:58:00,
2013-05-21 05:28:00,58.4,39.8,29.76,East,95,3.0,8.0,50,0.00,,,0.00,VWS V14.01,2013-05-21 12:28:00,
2013-05-21 05:58:00,59.0,37.7,29.77,East,87,6.0,8.0,45,0.00,,,0.00,VWS V14.01,2013-05-21 12:58:00,
2013-05-21 06:28:00,59.2,37.3,29.77,East,95,5.0,8.0,44,0.00,,,0.00,VWS V14.01,2013-05-21 13:28:00,
2013-05-21 06:58:00,65.3,39.1,29.78,East,91,2.0,8.0,38,0.00,,,0.00,VWS V14.01,2013-05-21 13:58:00,
2013-05-21 07:28:00,69.8,42.4,29.78,ESE,106,2.0,7.0,37,0.00,,,0.00,VWS V14.01,2013-05-21 14:28:00,
2013-05-21 07:58:00,75.5,37.2,29.78,SE,125,2.0,5.0,25,0.00,,,0.00,VWS V14.01,2013-05-21 14:58:00,
2013-05-21 08:28:00,77.0,36.4,29.78,SSE,165,0.0,6.0,23,0.00,,,0.00,VWS V14.01,2013-05-21 15:28:00,
2013-05-21 08:58:00,78.7,36.7,29.79,SSE,164,0.0,4.0,22,0.00,,,0.00,VWS V14.01,2013-05-21 15:58:00,
2013-05-21 09:28:00,78.9,39.1,29.79,WNW,283,6.0,8.0,24,0.00,,,0.00,VWS V14.01,2013-05-21 16:28:00,
2013-05-21 09:59:00,79.1,40.3,29.79,West,268,7.0,14.0,25,0.00,,,0.00,VWS V14.01,2013-05-21 16:59:00,
2013-05-21 10:28:00,79.7,39.8,29.79,West,263,6.0,9.0,24,0.00,,,0.00,VWS V14.01,2013-05-21 17:28:00,
2013-05-21 10:58:00,80.7,40.6,29.79,North,359,8.0,11.0,24,0.00,,,0.00,VWS V14.01,2013-05-21 17:58:00,
2013-05-21 11:28:00,81.6,42.4,29.79,WSW,254,13.0,13.0,25,0.00,,,0.00,VWS V14.01,2013-05-21 18:28:00,
2013-05-21 11:59:00,82.0,42.8,29.79,SW,220,7.0,13.0,25,0.00,,,0.00,VWS V14.01,2013-05-21 18:59:00,
2013-05-21 12:28:00,81.6,43.4,29.78,WNW,283,4.0,14.0,26,0.00,,,0.00,VWS V14.01,2013-05-21 19:28:00,
2013-05-21 12:58:00,81.2,46.0,29.78,West,268,4.0,15.0,29,0.00,,,0.00,VWS V14.01,2013-05-21 19:58:00,
2013-05-21 13:29:00,80.8,49.8,29.78,WNW,288,12.0,16.0,34,0.00,,,0.00,VWS V14.01,2013-05-21 20:29:00,
2013-05-21 13:58:00,80.3,47.8,29.77,West,276,11.0,15.0,32,0.00,,,0.00,VWS V14.01,2013-05-21 20:58:00,
2013-05-21 14:28:00,79.7,51.2,29.77,West,272,8.0,12.0,37,0.00,,,0.00,VWS V14.01,2013-05-21 21:28:00,
2013-05-21 14:58:00,79.6,50.3,29.76,West,268,7.0,15.0,36,0.00,,,0.00,VWS V14.01,2013-05-21 21:58:00,
2013-05-21 15:28:00,78.9,49.7,29.75,West,260,9.0,14.0,36,0.00,,,0.00,VWS V14.01,2013-05-21 22:28:00,
2013-05-21 15:58:00,79.0,48.3,29.74,WSW,254,11.0,13.0,34,0.00,,,0.00,VWS V14.01,2013-05-21 22:58:00,
2013-05-21 16:28:00,78.9,46.6,29.73,SW,231,9.0,13.0,32,0.00,,,0.00,VWS V14.01,2013-05-21 23:28:00,
2013-05-21 16:58:00,78.3,49.2,29.72,WNW,283,7.0,9.0,36,0.00,,,0.00,VWS V14.01,2013-05-21 23:58:00,
2013-05-21 17:28:00,76.5,51.7,29.72,WNW,290,5.0,13.0,42,0.00,,,0.00,VWS V14.01,2013-05-22 00:28:00,
2013-05-21 17:58:00,76.2,51.5,29.71,WNW,283,3.0,8.0,42,0.00,,,0.00,VWS V14.01,2013-05-22 00:58:00,
2013-05-21 18:28:00,73.5,52.6,29.71,WNW,295,6.0,9.0,48,0.00,,,0.00,VWS V14.01,2013-05-22 01:28:00,
2013-05-21 18:58:00,71.9,52.3,29.70,WNW,289,0.0,7.0,50,0.00,,,0.00,VWS V14.01,2013-05-22 01:58:00,
2013-05-21 19:28:00,68.9,52.1,29.70,WNW,299,0.0,6.0,55,0.00,,,0.00,VWS V14.01,2013-05-22 02:28:00,
2013-05-21 19:58:00,65.7,52.8,29.71,WNW,299,0.0,2.0,63,0.00,,,0.00,VWS V14.01,2013-05-22 02:58:00,
2013-05-21 20:28:00,63.2,52.1,29.71,SW,236,0.0,3.0,67,0.00,,,0.00,VWS V14.01,2013-05-22 03:28:00,
2013-05-21 20:58:00,59.6,48.6,29.71,East,83,0.0,3.0,67,0.00,,,0.00,VWS V14.01,2013-05-22 03:58:00,
2013-05-21 21:28:00,57.5,47.8,29.72,East,79,3.0,5.0,70,0.00,,,0.00,VWS V14.01,2013-05-22 04:28:00,
2013-05-21 21:58:00,55.5,42.7,29.72,East,83,1.0,7.0,62,0.00,,,0.00,VWS V14.01,2013-05-22 04:58:00,
2013-05-21 22:28:00,54.8,42.0,29.72,ENE,78,0.0,7.0,62,0.00,,,0.00,VWS V14.01,2013-05-22 05:28:00,
2013-05-21 22:58:00,54.4,41.2,29.72,East,79,5.0,7.0,61,0.00,,,0.00,VWS V14.01,2013-05-22 05:58:00,
2013-05-21 23:28:00,53.8,41.5,29.72,ENE,71,1.0,6.0,63,0.00,,,0.00,VWS V14.01,2013-05-22 06:28:00,
2013-05-21 23:58:00,53.2,38.8,29.72,ENE,77,2.0,5.0,58,0.00,,,0.00,VWS V14.01,2013-05-22 06:58:00,